TA5KA Weather Reports


time (UTC)temp
C
wind
direction
speed
KPH
gust
KPH
rain 1hr
cm
rain 24hr
cm
rain mn
cm
humidity
%
barometer
mb
20260504110707 11 274 9.7 11.3 0.00 0.00 0.00 58 1006.0
20260504110531 11 274 9.7 11.3 0.00 0.00 0.00 58 1006.0
20260504100523 11 274 9.7 11.3 0.00 0.00 0.00 50 1006.0
20260504081644 9 271 6.4 6.4 0.00 0.00 0.00 57 1006.0
20260504081507 9 271 6.4 6.4 0.00 0.00 0.00 57 1006.0
20260504080642 9 271 6.4 6.4 0.00 0.00 0.00 57 1006.0
20260504080505 9 271 6.4 6.4 0.00 0.00 0.00 57 1006.0
20260504050618 4 259 1.6 1.6 0.00 0.00 0.00 81 1005.0
20260504050439 4 259 1.6 1.6 0.00 0.00 0.00 81 1005.0
20260504045616 3 259 1.6 1.6 0.00 0.00 0.00 81 1005.0
20260504045437 3 259 1.6 1.6 0.00 0.00 0.00 81 1005.0
20260504044615 3 259 1.6 1.6 0.00 0.00 0.00 81 1005.0
20260504044436 3 259 1.6 1.6 0.00 0.00 0.00 81 1005.0
20260504043613 4 259 1.6 1.6 0.00 0.00 0.00 81 1005.0
20260504043435 4 259 1.6 1.6 0.00 0.00 0.00 81 1005.0
20260504042612 4 259 1.6 1.6 0.00 0.00 0.00 81 1005.0
20260504042434 4 259 1.6 1.6 0.00 0.00 0.00 81 1005.0
20260504041611 4 259 1.6 1.6 0.00 0.00 0.00 81 1005.0
20260504041432 4 259 1.6 1.6 0.00 0.00 0.00 81 1005.0
20260504040610 4 259 1.6 1.6 0.00 0.00 0.00 81 1005.0
20260504040431 4 259 1.6 1.6 0.00 0.00 0.00 81 1005.0
20260504035608 4 192 1.6 4.8 0.00 0.00 0.00 81 1005.0
20260504035430 4 192 1.6 4.8 0.00 0.00 0.00 81 1005.0
20260504034607 3 192 1.6 4.8 0.00 0.00 0.00 81 1005.0
20260504034428 3 192 1.6 4.8 0.00 0.00 0.00 81 1005.0
20260504033605 3 192 1.6 4.8 0.00 0.00 0.00 93 1004.0
20260504033427 3 192 1.6 4.8 0.00 0.00 0.00 93 1004.0
20260504032603 3 192 1.6 4.8 0.00 0.00 0.00 93 1004.0
20260504032426 3 192 1.6 4.8 0.00 0.00 0.00 93 1004.0
20260504031602 3 192 1.6 4.8 0.00 0.00 0.00 93 1004.0
20260504031424 3 192 1.6 4.8 0.00 0.00 0.00 93 1004.0
20260504030600 4 192 1.6 4.8 0.00 0.00 0.00 93 1004.0
20260504030422 4 192 1.6 4.8 0.00 0.00 0.00 93 1004.0
20260504025603 4 88 1.6 3.2 0.00 0.00 0.00 93 1004.0
20260504025559 4 88 1.6 3.2 0.00 0.00 0.00 93 1004.0
20260504025421 4 88 1.6 3.2 0.00 0.00 0.00 93 1004.0
20260504024601 4 119 1.6 1.6 0.00 0.00 0.00 93 1004.0
20260504024558 4 119 1.6 1.6 0.00 0.00 0.00 93 1004.0
20260504024420 4 119 1.6 1.6 0.00 0.00 0.00 93 1004.0
20260504023600 4 119 1.6 1.6 0.00 0.00 0.00 93 1004.0
20260504023557 4 119 1.6 1.6 0.00 0.00 0.00 93 1004.0
20260504023418 4 119 1.6 1.6 0.00 0.00 0.00 93 1004.0
20260504022555 4 119 1.6 1.6 0.00 0.00 0.00 93 1004.0
20260504022417 4 119 1.6 1.6 0.00 0.00 0.00 93 1004.0
20260504021554 4 119 1.6 1.6 0.00 0.00 0.00 93 1004.0
20260504021415 4 119 1.6 1.6 0.00 0.00 0.00 93 1004.0
20260504020552 3 146 1.6 4.8 0.00 0.00 0.00 93 1004.0
20260504020414 3 146 1.6 4.8 0.00 0.00 0.00 93 1004.0
20260504015551 3 146 1.6 4.8 0.00 0.00 0.00 93 1004.0
20260504015412 3 146 1.6 4.8 0.00 0.00 0.00 93 1004.0
20260504014550 6 146 1.6 4.8 0.00 0.00 0.00 93 1004.0
20260504014411 6 146 1.6 4.8 0.00 0.00 0.00 93 1004.0
20260504013548 6 146 1.6 4.8 0.00 0.00 0.00 93 1004.0
20260504013410 6 146 1.6 4.8 0.00 0.00 0.00 93 1004.0
20260504012547 6 146 1.6 4.8 0.00 0.00 0.00 93 1004.0
20260504012408 6 146 1.6 4.8 0.00 0.00 0.00 93 1004.0
20260504011545 6 146 1.6 4.8 0.00 0.00 0.00 93 1004.0
20260504011407 6 146 1.6 4.8 0.00 0.00 0.00 93 1004.0
20260504010544 6 146 1.6 4.8 0.00 0.00 0.00 93 1004.0
20260504010406 6 146 1.6 4.8 0.00 0.00 0.00 93 1004.0
20260504005543 6 158 4.8 8.0 0.00 0.00 0.00 93 1004.0
20260504005404 6 158 4.8 8.0 0.00 0.00 0.00 93 1004.0
20260504004542 6 158 4.8 8.0 0.00 0.00 0.00 93 1004.0
20260504004403 6 158 4.8 8.0 0.00 0.00 0.00 93 1004.0
20260504003540 6 158 4.8 8.0 0.00 0.00 0.00 93 1004.0
20260504003402 6 158 4.8 8.0 0.00 0.00 0.00 93 1004.0
20260504002539 6 158 4.8 8.0 0.00 0.00 0.00 93 1004.0
20260504002400 6 158 4.8 8.0 0.00 0.00 0.00 93 1004.0
20260504001538 7 158 4.8 8.0 0.00 0.00 0.00 93 1004.0
20260504001359 7 158 4.8 8.0 0.00 0.00 0.00 93 1004.0
20260504000537 7 158 4.8 8.0 0.00 0.00 0.00 93 1004.0
20260504000357 7 158 4.8 8.0 0.00 0.00 0.00 93 1004.0
20260503235535 7 153 4.8 8.0 0.00 0.00 0.00 93 1004.0
20260503234534 7 153 4.8 8.0 0.00 0.00 0.00 93 1004.0
20260503234352 7 153 4.8 8.0 0.00 0.00 0.00 93 1004.0
20260503233533 7 153 4.8 8.0 0.00 0.00 0.00 93 1004.0
20260503233350 7 153 4.8 8.0 0.00 0.00 0.00 93 1004.0
20260503232531 7 153 4.8 8.0 0.00 0.00 0.00 93 1004.0
20260503232349 7 153 4.8 8.0 0.00 0.00 0.00 93 1004.0
20260503231530 7 153 4.8 8.0 0.00 0.00 0.00 93 1004.0
20260503231348 7 153 4.8 8.0 0.00 0.00 0.00 93 1004.0
20260503230528 7 153 4.8 8.0 0.00 0.00 0.00 93 1004.0
20260503230347 7 153 4.8 8.0 0.00 0.00 0.00 93 1004.0
20260503225527 7 141 3.2 4.8 0.05 0.00 0.00 93 1004.0
20260503225345 7 141 3.2 4.8 0.05 0.00 0.00 93 1004.0
20260503224526 7 141 3.2 4.8 0.05 0.00 0.00 93 1004.0
20260503224344 7 141 3.2 4.8 0.05 0.00 0.00 93 1004.0
20260503223524 7 141 3.2 4.8 0.05 0.00 0.00 93 1004.0
20260503223343 7 141 3.2 4.8 0.05 0.00 0.00 93 1004.0
20260503222523 7 141 3.2 4.8 0.05 0.00 0.00 93 1004.0
20260503222341 7 141 3.2 4.8 0.05 0.00 0.00 93 1004.0
20260503221522 7 141 3.2 4.8 0.05 0.00 0.00 93 1004.0
20260503221340 7 141 3.2 4.8 0.05 0.00 0.00 93 1004.0
20260503220521 7 141 3.2 4.8 0.05 0.00 0.00 93 1004.0
20260503220338 7 141 3.2 4.8 0.05 0.00 0.00 93 1004.0
20260503215519 7 141 3.2 4.8 0.05 0.00 0.00 93 1004.0
20260503215337 7 141 3.2 4.8 0.05 0.00 0.00 93 1004.0
20260503214518 7 141 3.2 4.8 0.05 0.00 0.00 93 1004.0
20260503214335 7 141 3.2 4.8 0.05 0.00 0.00 93 1004.0
20260503213517 7 141 3.2 4.8 0.05 0.00 0.00 87 1004.0
20260503213334 7 141 3.2 4.8 0.05 0.00 0.00 87 1004.0
20260503212516 7 141 3.2 4.8 0.05 0.00 0.00 87 1004.0
20260503212333 7 141 3.2 4.8 0.05 0.00 0.00 87 1004.0
20260503211515 8 141 3.2 4.8 0.05 0.00 0.00 93 1003.0
20260503211331 8 141 3.2 4.8 0.05 0.00 0.00 93 1003.0
20260503210513 8 258 3.2 3.2 0.00 0.00 0.00 93 1003.0
20260503210330 8 258 3.2 3.2 0.00 0.00 0.00 93 1003.0
20260503205512 8 258 3.2 3.2 0.00 0.00 0.00 93 1003.0
20260503205329 8 258 3.2 3.2 0.00 0.00 0.00 93 1003.0
20260503204511 8 258 3.2 3.2 0.00 0.00 0.00 93 1003.0
20260503204327 8 258 3.2 3.2 0.00 0.00 0.00 93 1003.0
20260503203510 7 284 4.8 6.4 0.00 0.00 0.00 87 1004.0
20260503203326 7 284 4.8 6.4 0.00 0.00 0.00 87 1004.0
20260503202508 8 284 4.8 6.4 0.00 0.00 0.00 87 1003.0
20260503202325 8 284 4.8 6.4 0.00 0.00 0.00 87 1003.0
20260503201507 8 284 4.8 6.4 0.00 0.00 0.00 87 1003.0
20260503201324 8 284 4.8 6.4 0.00 0.00 0.00 87 1003.0
20260503200506 8 284 4.8 6.4 0.00 0.00 0.00 87 1003.0
20260503200323 8 284 4.8 6.4 0.00 0.00 0.00 87 1003.0
20260503195504 9 267 4.8 4.8 0.00 0.00 0.00 87 1003.0
20260503195321 9 267 4.8 4.8 0.00 0.00 0.00 87 1003.0
20260503194504 9 267 4.8 4.8 0.00 0.00 0.00 87 1003.0
20260503194319 9 267 4.8 4.8 0.00 0.00 0.00 87 1003.0
20260503193502 9 267 4.8 4.8 0.00 0.00 0.00 87 1003.0
20260503193318 9 267 4.8 4.8 0.00 0.00 0.00 87 1003.0
20260503192501 8 267 4.8 4.8 0.00 0.00 0.00 93 1003.0
20260503192317 8 267 4.8 4.8 0.00 0.00 0.00 93 1003.0
20260503191502 9 267 4.8 4.8 0.00 0.00 0.00 93 1003.0
20260503191459 9 267 4.8 4.8 0.00 0.00 0.00 93 1003.0
20260503191315 9 267 4.8 4.8 0.00 0.00 0.00 93 1003.0
20260503190501 8 351 1.6 1.6 0.00 0.00 0.00 93 1003.0
20260503190457 8 351 1.6 1.6 0.00 0.00 0.00 93 1003.0
20260503190314 8 351 1.6 1.6 0.00 0.00 0.00 93 1003.0
20260503185456 8 351 1.6 1.6 0.00 0.00 0.00 93 1003.0
20260503185312 8 351 1.6 1.6 0.00 0.00 0.00 93 1003.0
20260503184455 8 351 1.6 1.6 0.00 0.00 0.00 87 1002.0
20260503184310 8 351 1.6 1.6 0.00 0.00 0.00 87 1002.0
20260503183453 8 351 1.6 1.6 0.00 0.00 0.00 87 1002.0
20260503183309 8 351 1.6 1.6 0.00 0.00 0.00 87 1002.0
20260503182452 9 351 1.6 1.6 0.00 0.00 0.00 87 1002.0
20260503182308 9 351 1.6 1.6 0.00 0.00 0.00 87 1002.0
20260503181451 9 351 1.6 1.6 0.00 0.00 0.00 87 1002.0
20260503181306 9 351 1.6 1.6 0.00 0.00 0.00 87 1002.0
20260503180450 6 351 1.6 1.6 0.00 0.00 0.00 89 1003.0
20260503180304 6 351 1.6 1.6 0.00 0.00 0.00 89 1003.0
20260503175448 8 57 4.8 8.0 0.00 0.00 0.00 87 1002.0
20260503175304 8 57 4.8 8.0 0.00 0.00 0.00 87 1002.0
20260503174447 8 57 4.8 8.0 0.00 0.00 0.00 87 1002.0
20260503174302 8 57 4.8 8.0 0.00 0.00 0.00 87 1002.0
20260503173446 9 57 4.8 8.0 0.00 0.00 0.00 87 1002.0
20260503173300 9 57 4.8 8.0 0.00 0.00 0.00 87 1002.0
20260503172444 9 57 4.8 8.0 0.00 0.00 0.00 87 1002.0
20260503172259 9 57 4.8 8.0 0.00 0.00 0.00 87 1002.0
20260503171443 10 57 4.8 8.0 0.00 0.00 0.00 82 1003.0
20260503171257 10 57 4.8 8.0 0.00 0.00 0.00 82 1003.0
20260503170442 10 57 4.8 8.0 0.00 0.00 0.00 82 1003.0
20260503170256 10 57 4.8 8.0 0.00 0.00 0.00 82 1003.0
20260503150427 7 57 11.3 12.9 0.00 0.00 0.00 84 1003.0
20260503150238 7 57 11.3 12.9 0.00 0.00 0.00 84 1003.0
20260503140230 10 64 3.2 3.2 0.05 0.00 0.00 87 1005.0
20260503131411 10 61 4.8 4.8 0.00 0.00 0.00 87 1006.0
20260503131223 10 61 4.8 4.8 0.00 0.00 0.00 87 1006.0
20260503130411 7 61 4.8 4.8 0.00 0.00 0.00 89 1004.0
20260503130221 7 61 4.8 4.8 0.00 0.00 0.00 89 1004.0
20260503120213 10 38 3.2 3.2 0.00 0.00 0.00 87 1006.0